Location: Knowlton
(51.2333°N, 1.2667°E)
Time: 10:29:36
(UTC+00:00)

Cosmos 2219 - Pass Details

Date: 18 April 2021
Orbit: 834 x 860 km, 71.1° (Epoch: 16 May)

Event Time Altitude Azimuth Distance (km) Brightness Sun altitude
Exits shadow 21:47:27 14° 213° (SSW) 2,165 5.1 -21.8°
Maximum altitude 21:52:19 82° 300° (WNW) 850 3.2 -22.3°
Drops below altitude 10° 21:57:59 10° 29° (NNE) 2,460 6.0 -22.7°
Sets 22:00:26 0° 30° (NNE) 3,401 6.7 -22.9°
